[[{"header":{"parameterUnit":"m.s-1","parameterCategory":1,"la1":30.2991,"la2":30.254,"lo1":-89.0895,"lo2":-89.0444,"dy":0.0017,"dx":0.0017,"nx":28,"ny":28,"refTime":"2024-11-25T03:00:00:Z","depth":0,"parameterNumber":2,"parameterNumberName":"U-component_of_WINDS"},"data":[0,0,0,0,0,0,0,0,0,0,0,0,0,0,0,0,0,0,0,0,0,0,0,0,0,0,0,0,0,0,0,0,0,0,0,0,0,0,0,0,0,0,0,0,0,0,0,0,0,0,0,0,0,0,0,0,0,0,0.6082,0.6083,0,0.6247,0.6249,0.6251,0.6281,0.628,0.6278,0.6277,0.6455,0.6461,0.6467,0,0,0,0,0,0,0,0,0,0,0,0,0,0.5801,0.5806,0.6082,0.6084,0.6086,0.6247,0.6249,0.6251,0.6281,0.628,0.6278,0.6277,0.6453,0.646,0.6468,0,0,0,0,0,0,0,0,0,0,0,0,0,0.594,0.5808,0.6081,0.612,0.6125,0.6246,0.6249,0.6252,0.6282,0.628,0.6278,0.6276,0.6451,0.646,0.6469,0.6565,0,0,0.6496,0.65,0,0,0,0,0,0,0,0,0.5932,0.5951,0.6112,0.6117,0.6123,0.6241,0.6215,0.6357,0.6282,0.6223,0.6277,0.6275,0.6386,0.64,0.6436,0.6574,0.6581,0.6497,0.6502,0.6506,0.6509,0,0,0,0,0,0,0,0.5923,0.5944,0.6147,0.6115,0.6121,0.6132,0.615,0.6242,0.6314,0.6228,0.623,0.6249,0.6389,0.6427,0.6441,0.6584,0.6497,0.6505,0.651,0.6514,0.6811,0.6814,0,0,0,0,0,0,0.5905,0.5935,0.6142,0.6152,0.6021,0.6139,0.6158,0.6206,0.6313,0.6327,0.625,0.625,0.6413,0.643,0.6447,0.6569,0.6506,0.6515,0.652,0.6809,0.6812,0.6814,0,0,0,0,0,0,0.5899,0.5923,0.6135,0.6045,0.6072,0.6146,0.6199,0.621,0.6248,0.633,0.6344,0.6276,0.6412,0.6434,0.6535,0.6575,0.6519,0.6527,0.6806,0.681,0.6813,0.6812,0,0,0,0,0,0,0.5891,0.5921,0.5956,0.6045,0.6077,0.6218,0.6201,0.6215,0.6263,0.6263,0.6358,0.6372,0.6412,0.6522,0.6544,0.6587,0.6534,0.6803,0.6808,0.6812,0.6808,0.6815,0.682,0,0,0,0,0,0.588,0.5951,0.5958,0.5982,0.6122,0.622,0.6239,0.6282,0.6266,0.6304,0.6356,0.6369,0.6567,0.6532,0.6558,0.6603,0.68,0.6806,0.6812,0.6806,0.6813,0.682,0,0,0,0,0,0,0.5867,0.5963,0.5972,0.6072,0.6137,0.6225,0.6274,0.6288,0.6362,0.636,0.6412,0.6433,0.6532,0.6578,0.6537,0.6703,0.6683,0.6694,0.667,0.6678,0.6684,0.6671,0.6541,0,0,0,0,0,0.5875,0.5944,0.6025,0.6106,0.6138,0.62,0.6245,0.6272,0.6343,0.6371,0.6432,0.6503,0.6581,0.6632,0.6709,0.6815,0.6837,0.6859,0.6865,0.6869,0.6879,0.694,0.6952,0.6833,0.6833,0.6833,0,0,0.5894,0.5955,0.5996,0.6105,0.6159,0.6232,0.6224,0.6301,0.6357,0.6384,0.6483,0.653,0.6613,0.6717,0.6766,0.6758,0.6916,0.6876,0.6879,0.6887,0.6947,0.6958,0.6968,0.6837,0.6836,0.6835,0,0,0.5965,0.6017,0.6091,0.6144,0.6225,0.6266,0.6284,0.637,0.6401,0.65,0.6523,0.6591,0.6724,0.6783,0.683,0.6924,0.6939,0.6948,0.6979,0.7039,0.7048,0.7057,0.7092,0.7104,0.6957,0.6957,0.6957,0,0.5979,0.6087,0.6128,0.6204,0.6252,0.6278,0.6355,0.6406,0.6509,0.6543,0.6532,0.67,0.6758,0.6877,0.69,0.6937,0.6961,0.6938,0.7043,0.7052,0.7061,0.7095,0.7108,0.6957,0.6957,0.6957,0.6957,0,0.6101,0.6176,0.6226,0.6321,0.6376,0.6452,0.6507,0.6558,0.658,0.6623,0.6725,0.6795,0.6886,0.6917,0.694,0.704,0.7033,0.7032,0.7013,0.7072,0.7105,0.7118,0.6958,0.6958,0.6958,0.6958,0,0,0.6169,0.6285,0.6304,0.6348,0.6439,0.6499,0.6578,0.6664,0.6708,0.6778,0.6847,0.6959,0.6959,0.7012,0.7043,0.7095,0.7167,0.7088,0.7091,0.7102,0.7284,0.7285,0.7299,0.7177,0.718,0.7182,0.7277,0,0.6253,0.639,0.6429,0.6546,0.6617,0.6643,0.6712,0.6777,0.6819,0.6888,0.6936,0.7015,0.7008,0.704,0.7093,0.7147,0.7205,0.7141,0.7245,0.7248,0.7224,0.7316,0.7318,0.7404,0.729,0.7293,0.7294,0,0.6368,0.6438,0.6561,0.6644,0.6675,0.6736,0.6819,0.6883,0.6959,0.6986,0.7046,0.7072,0.7158,0.7133,0.7254,0.7209,0.7255,0.7288,0.7292,0.7305,0.7275,0.7333,0.7433,0.7446,0.7315,0.7313,0.7312,0,0.6407,0.6532,0.6622,0.6659,0.6758,0.68,0.6844,0.6916,0.6966,0.7041,0.7074,0.7158,0.7205,0.7271,0.732,0.7297,0.7438,0.7416,0.7465,0.7464,0.7495,0.7493,0.7605,0.7521,0.7521,0.7521,0.7521,0,0.6496,0.6571,0.6641,0.6697,0.6782,0.6828,0.6913,0.6958,0.7023,0.709,0.7118,0.7181,0.7242,0.7314,0.7354,0.7449,0.747,0.7496,0.7506,0.7495,0.7491,0.7526,0.7522,0.7524,0.7524,0.7523,0.7522,0,0.6555,0.6604,0.6704,0.6788,0.6812,0.6871,0.6945,0.7002,0.7045,0.713,0.7153,0.7222,0.7308,0.7363,0.7474,0.7501,0.7606,0.7613,0.758,0.7585,0.7631,0.7627,0.7771,0.7793,0.7693,0.7694,0.7695,0,0.6609,0.6667,0.6757,0.6802,0.6846,0.6919,0.697,0.7018,0.707,0.716,0.7207,0.7295,0.7367,0.7505,0.7567,0.7653,0.7663,0.7708,0.7677,0.7663,0.7666,0.7663,0.767,0.7714,0.7714,0.7715,0.7716,0,0.6701,0.6722,0.6793,0.6872,0.6931,0.6997,0.7063,0.7099,0.7159,0.7217,0.7304,0.736,0.7472,0.756,0.7651,0.77,0.7719,0.7725,0.7741,0.773,0.7709,0.7723,0.7595,0.7722,0.7721,0.7721,0.772,0.772,0.676,0.6813,0.6885,0.6963,0.7017,0.7078,0.7135,0.7185,0.7257,0.735,0.7375,0.7467,0.7543,0.7667,0.7717,0.7792,0.7787,0.781,0.7816,0.7821,0.7823,0.7695,0.7809,0.7809,0.7809,0.7809,0.7808,0,0.6855,0.6902,0.6973,0.7063,0.7125,0.7134,0.7208,0.726,0.7339,0.7407,0.7478,0.7579,0.7665,0.7733,0.7822,0.7868,0.788,0.789,0.7888,0.79,0.7822,0.7799,0.788,0.788,0.788,0.788,0.788,0.788,0.6911,0.7002,0.7032,0.7151,0.7199,0.7286,0.7328,0.7385,0.744,0.755,0.762,0.7663,0.7733,0.7827,0.7906,0.7925,0.7957,0.7966,0.7987,0.7913,0.7905,0.7897,0.7877,0.7972,0.7972,0.8059,0.8059,0.806]},{"header":{"parameterUnit":"m.s-1","parameterCategory":1,"la1":30.2991,"la2":30.254,"lo1":-89.0895,"lo2":-89.0444,"dy":0.0017,"dx":0.0017,"nx":28,"ny":28,"refTime":"2024-11-25T03:00:00:Z","depth":0,"parameterNumber":3,"parameterNumberName":"V-component_of_WINDS"},"data":[0,0,0,0,0,0,0,0,0,0,0,0,0,0,0,0,0,0,0,0,0,0,0,0,0,0,0,0,0,0,0,0,0,0,0,0,0,0,0,0,0,0,0,0,0,0,0,0,0,0,0,0,0,0,0,0,0,0,1.0536,1.0538,0,1.0723,1.0725,1.0727,1.0761,1.0759,1.0757,1.0756,1.095,1.0957,1.0963,0,0,0,0,0,0,0,0,0,0,0,0,0,1.0214,1.022,1.0536,1.0539,1.0541,1.0722,1.0725,1.0728,1.0761,1.0759,1.0757,1.0755,1.0948,1.0956,1.0964,0,0,0,0,0,0,0,0,0,0,0,0,0,1.0373,1.0222,1.0536,1.0579,1.0585,1.0722,1.0725,1.0728,1.0761,1.0759,1.0757,1.0754,1.0946,1.0955,1.0965,1.1073,0,0,1.0995,1.1,0,0,0,0,0,0,0,0,1.0364,1.0385,1.0571,1.0577,1.0583,1.0716,1.0683,1.0844,1.0762,1.0694,1.0756,1.0753,1.0875,1.089,1.093,1.1082,1.109,1.0996,1.1002,1.1007,1.1009,0,0,0,0,0,0,0,1.0353,1.0377,1.061,1.0573,1.0581,1.0591,1.0611,1.0713,1.0795,1.07,1.0703,1.0724,1.0878,1.0921,1.0935,1.1093,1.0996,1.1005,1.1011,1.1015,1.1346,1.1349,0,0,0,0,0,0,1.0333,1.0367,1.0604,1.0616,1.0465,1.0599,1.0621,1.0676,1.0794,1.081,1.0726,1.0725,1.0905,1.0923,1.0942,1.1079,1.1006,1.1016,1.1021,1.1343,1.1347,1.135,0,0,0,0,0,0,1.0326,1.0354,1.0597,1.0492,1.0524,1.0607,1.0668,1.0681,1.0724,1.0814,1.0829,1.0755,1.0904,1.0928,1.1041,1.1086,1.102,1.1029,1.134,1.1344,1.1348,1.1351,0,0,0,0,0,0,1.0317,1.0351,1.0392,1.0493,1.0529,1.0691,1.0671,1.0686,1.074,1.0741,1.0845,1.086,1.0904,1.1026,1.105,1.1098,1.1037,1.1336,1.1342,1.1347,1.1347,1.1355,1.1361,0,0,0,0,0,1.0305,1.0385,1.0394,1.0422,1.0582,1.0693,1.0714,1.0762,1.0744,1.0787,1.0845,1.0857,1.1076,1.1037,1.1065,1.1117,1.1334,1.134,1.1346,1.1344,1.1353,1.1361,0,0,0,0,0,0,1.0288,1.0399,1.041,1.0524,1.0599,1.0698,1.0753,1.077,1.0852,1.0849,1.0906,1.0929,1.1039,1.1089,1.1043,1.1229,1.1204,1.1216,1.1193,1.1202,1.1209,1.1196,1.1045,0,0,0,0,0,1.0297,1.0377,1.047,1.0563,1.06,1.067,1.072,1.0751,1.0831,1.0863,1.0929,1.1007,1.1095,1.1151,1.1235,1.1354,1.1379,1.1404,1.1411,1.1416,1.1427,1.1497,1.151,1.1371,1.1371,1.1371,0,0,1.0318,1.0388,1.0436,1.0561,1.0622,1.0706,1.0696,1.0784,1.0848,1.0877,1.0987,1.1039,1.113,1.1247,1.1302,1.1292,1.147,1.1424,1.1428,1.1436,1.1505,1.1518,1.1529,1.1375,1.1374,1.1374,0,0,1.0399,1.0459,1.0544,1.0605,1.0698,1.0745,1.0765,1.0863,1.0898,1.101,1.1034,1.1111,1.1258,1.1324,1.1376,1.1483,1.1498,1.1509,1.1547,1.1614,1.1625,1.1635,1.1676,1.169,1.1519,1.1519,1.1519,0,1.0413,1.0538,1.0586,1.0674,1.073,1.0759,1.0847,1.0905,1.1021,1.106,1.1046,1.1234,1.1298,1.1432,1.1458,1.1498,1.1526,1.1498,1.1619,1.163,1.164,1.168,1.1695,1.152,1.152,1.152,1.152,0,1.0553,1.064,1.0698,1.0809,1.0871,1.0958,1.1021,1.1079,1.1104,1.1153,1.1268,1.1345,1.1447,1.148,1.1506,1.1619,1.1611,1.1607,1.1584,1.1653,1.1692,1.1708,1.1521,1.1521,1.1521,1.152,0,0,1.0629,1.0766,1.0787,1.0839,1.0944,1.1013,1.1103,1.1202,1.1252,1.1331,1.141,1.1535,1.1533,1.1593,1.1626,1.1684,1.1769,1.1675,1.1678,1.1692,1.1902,1.1906,1.1923,1.1778,1.1781,1.1784,1.1896,0,1.0725,1.0885,1.0931,1.1067,1.115,1.1179,1.1258,1.1332,1.138,1.1458,1.1512,1.1601,1.159,1.1627,1.1686,1.1746,1.1812,1.1738,1.1855,1.1859,1.1834,1.1943,1.1947,1.2048,1.1911,1.1913,1.1915,0,1.0858,1.094,1.1084,1.1181,1.1217,1.1287,1.1383,1.1457,1.1542,1.1574,1.164,1.1669,1.1766,1.1736,1.1872,1.1821,1.1871,1.1908,1.1913,1.1928,1.1893,1.1964,1.2081,1.2098,1.1939,1.1937,1.1935,0,1.0903,1.1049,1.1155,1.1198,1.1313,1.1362,1.1412,1.1495,1.1553,1.1637,1.1676,1.177,1.1823,1.1896,1.195,1.1922,1.2084,1.2057,1.2115,1.2113,1.2149,1.2147,1.228,1.2177,1.2176,1.2176,1.2176,0,1.1006,1.1094,1.1177,1.1242,1.1342,1.1395,1.1493,1.1545,1.1619,1.1697,1.1728,1.18,1.1866,1.1948,1.199,1.2099,1.2122,1.2152,1.2163,1.2151,1.2147,1.2187,1.2182,1.218,1.2179,1.2178,1.2178,0,1.1074,1.1132,1.1251,1.135,1.1377,1.1447,1.1533,1.1599,1.1647,1.1746,1.1772,1.185,1.1948,1.2009,1.2133,1.2162,1.2283,1.2289,1.2254,1.2259,1.2315,1.231,1.2481,1.2507,1.2383,1.2384,1.2385,0,1.1138,1.1206,1.1313,1.1367,1.1418,1.1504,1.1563,1.1618,1.1679,1.1783,1.1837,1.1937,1.202,1.2176,1.2245,1.2341,1.2353,1.2406,1.2367,1.2354,1.2358,1.2354,1.2363,1.2413,1.2414,1.2415,1.2415,0,1.1246,1.1272,1.1355,1.145,1.1519,1.1597,1.1674,1.1716,1.1785,1.1852,1.1953,1.2017,1.2145,1.2245,1.2348,1.2402,1.2422,1.2427,1.2446,1.2436,1.2414,1.243,1.2275,1.2423,1.2422,1.2422,1.2421,1.2421,1.1316,1.138,1.1465,1.1558,1.1622,1.1693,1.1761,1.1819,1.1903,1.2011,1.2039,1.2145,1.2232,1.2371,1.2427,1.2513,1.2505,1.2532,1.254,1.2546,1.2549,1.2398,1.2531,1.2531,1.2531,1.2531,1.2531,0,1.1429,1.1485,1.157,1.1677,1.1751,1.1761,1.1848,1.1909,1.2002,1.208,1.2162,1.2279,1.2377,1.2453,1.2554,1.2608,1.262,1.2633,1.2631,1.2644,1.2548,1.2523,1.2622,1.2622,1.2622,1.2622,1.2622,1.2622,1.1496,1.1605,1.1641,1.1783,1.1839,1.1943,1.1992,1.206,1.2123,1.2252,1.2333,1.2382,1.2461,1.2568,1.2659,1.2679,1.2716,1.2728,1.2751,1.266,1.2651,1.2641,1.2618,1.2735,1.2735,1.284,1.2841,1.2842]}]]